map of KBDN home
KBDN - Airport
Location
City:  Bend, Oregon, United States
Name:Bend Municipal Airport
ICAO:KBDN
FAA LID:BDN

Details
Type:Airport (Airfield)
Use:Public/Civil
Latitude:4405'40"N (44.094556)
Longitude:12112'01"W (-121.200221)
Datum:WGS 1984
Elevation:3459 ft (1054 m)
Variation:14.61E (WMM2015v2 magnetic declination)
-0.09 annual change
Runways:1
Longest:5200 × 75 ft (1585 × 23 m), paved

Weather
METAR:KBDN 041415Z AUTO 00000KT 2SM -SN FEW002 FEW011 OVC015 M02/M03 A2930 RMK AO2
TAF:KBDN 041120Z 0412/0512 20005KT P6SM SCT050 OVC100
FM041600 32009KT 2SM -SN BR OVC010
TEMPO 0419/0422 1/2SM SN FG VV005
FM050000 35010KT 5SM -SHSN OVC010
FM050800 30003KT P6SM VCSH OVC010

Related Locations
Nearby:
Farthest:FTU: 10959 mi / 17637 km
Tolagnaro [Maurillac Airport (Fort Dauphin Airport)], MG

Find:

   beyond  
but within

Other Information
Maps:
NOTAMs:
Links:
Sources:

  
  • flag of United States
  • flag of Oregon
  

Sectional Chart

Flight Planning
at skyvector.com

Satellite Image

Google Maps Satellite view

 

Copyright © 2004-2019 Karl L. Swartz. All rights reserved.
The Great Circle Mapper name and logo are trademarks of the Great Circle Mapper.
All other trademarks mentioned herein belong to their respective owners.
Please see credits for attibutions and further copyright information.

  Follow gcmap on Facebook Follow gcmap on Twitter GCmap on LinkedIn

hCard Microformat

Geo Microformat